Location: Aulus
(42.7909°N, 1.3399°E)
Time: 19:40:23
(UTC+00:00)

Cosmos 1743 - Pass Details

Date: 19 May 2025
Orbit: 431 x 441 km, 82.5° (Epoch: 23 June)

Event Time Altitude Azimuth Distance (km) Brightness Sun altitude
Rises 20:17:10 0° 359° (N) 2,454 6.8 -10.3°
Maximum altitude 20:22:35 41° 78° (ENE) 662 2.9 -11.0°
Enters shadow 20:24:48 18° 143° (SE) 1,173 3.9 -11.3°
